Location: Addison Town Hall
(32.9525°N, 96.8158°W)
Time: 00:03:45
(UTC+00:00)

RESURS DK-1 - Pass Details

Date: 08 March 2021
Orbit: 555 x 562 km, 69.9° (Epoch: 10 April)

Event Time Altitude Azimuth Distance (km) Brightness Sun altitude
Rises 12:04:02 0° 207° (SSW) 2,717 5.6 -9.7°
Reaches altitude 10° 12:06:14 10° 210° (SSW) 1,827 4.7 -9.2°
Maximum altitude 12:10:17 65° 293° (WNW) 613 2.3 -8.4°
Drops below altitude 10° 12:14:22 10° 15° (NNE) 1,840 5.2 -7.5°
Sets 12:16:35 0° 19° (NNE) 2,739 6.1 -7.0°
